Zurück zum Katalog

SCOUT G-1 DEB

AktivPO
NORAD 18530·DEBRIS·🇺🇸 United States

Gestartet Sep 16, 1987 von Vandenberg Space Force Base

Loading…

Nächste Überflüge (nächste 24 Stunden)

TLE

AktuellSource: Space-Track

Epoche: Sep 14, 2026, 05:23 UTC

1 18530U 87080F   26257.22446572  .00000156  00000-0  20405-3 0  9990
2 18530  90.3206 176.6586 0086479  88.9490  64.9269 13.56291261927448

Verfolge SCOUT G-1 DEB in Echtzeit mit AllMySat

Download on the App Store